CANX-2

Last updated on Fri Aug 29 2025 00:03:47 GMT+0000 (Coordinated Universal Time)

1 32790U 08021H 25239.91447358 .00005709 00000+0 43668-3 0 9994 2 32790 97.8294 210.3206 0008705 323.0824 36.9800 15.02287187940727
UTC large
Height (km)
Speed (km/s)
/
Latitude / Longitude
Inclination (degrees)
Orbital Period (minutes)
Azimuth
Elevation
Range (km)
Doppler Factor

Next 0 passes for location: London (51.5072 / 0.1276)

Sorry there are no passes over London.